Year,Month,Day,Hour,Minute,Value (Times are PST for temperature in C)
2020,10,24,00,00,3.20
2020,10,24,00,01,3.20
2020,10,24,00,02,3.10
2020,10,24,00,03,3.10
2020,10,24,00,04,3.10
2020,10,24,00,05,3.10
2020,10,24,00,06,3.10
2020,10,24,00,07,3.10
2020,10,24,00,08,3.10
2020,10,24,00,09,3.10
2020,10,24,00,10,3.10
2020,10,24,00,11,3.10
2020,10,24,00,12,3.10
2020,10,24,00,13,3.10
2020,10,24,00,14,3.00
2020,10,24,00,15,3.00
2020,10,24,00,16,3.00
2020,10,24,00,17,3.00
2020,10,24,00,18,3.00
2020,10,24,00,19,3.10
2020,10,24,00,20,3.00
2020,10,24,00,21,3.00
2020,10,24,00,22,3.00
2020,10,24,00,23,3.00
2020,10,24,00,24,3.00
2020,10,24,00,25,3.00
2020,10,24,00,26,3.00
2020,10,24,00,27,3.00
2020,10,24,00,28,3.00
2020,10,24,00,29,3.00
2020,10,24,00,30,3.00
2020,10,24,00,31,3.00
2020,10,24,00,32,3.00
2020,10,24,00,33,3.00
2020,10,24,00,34,3.00
2020,10,24,00,35,3.00
2020,10,24,00,36,3.00
2020,10,24,00,37,2.90
2020,10,24,00,38,2.90
2020,10,24,00,39,2.90
2020,10,24,00,40,2.90
2020,10,24,00,41,2.90
2020,10,24,00,42,2.90
2020,10,24,00,43,2.90
2020,10,24,00,44,2.90
2020,10,24,00,45,2.90
2020,10,24,00,46,2.90
2020,10,24,00,47,2.90
2020,10,24,00,48,2.90
2020,10,24,00,49,2.90
2020,10,24,00,50,2.90
2020,10,24,00,51,2.90
2020,10,24,00,52,3.00
2020,10,24,00,53,2.90
2020,10,24,00,54,2.90
2020,10,24,00,55,3.00
2020,10,24,00,56,2.90
2020,10,24,00,57,2.90
2020,10,24,00,58,2.90
2020,10,24,00,59,2.90
2020,10,24,01,00,2.90
2020,10,24,01,01,2.90
2020,10,24,01,02,2.90
2020,10,24,01,03,2.90
2020,10,24,01,04,2.90
2020,10,24,01,05,2.90
2020,10,24,01,06,2.90
2020,10,24,01,07,2.90
2020,10,24,01,08,2.90
2020,10,24,01,09,2.90
2020,10,24,01,10,2.80
2020,10,24,01,11,2.80
2020,10,24,01,12,2.90
2020,10,24,01,13,2.90
2020,10,24,01,14,2.90
2020,10,24,01,15,2.90
2020,10,24,01,16,2.90
2020,10,24,01,17,2.90
2020,10,24,01,18,2.90
2020,10,24,01,19,2.90
2020,10,24,01,20,2.90
2020,10,24,01,21,2.90
2020,10,24,01,22,2.90
2020,10,24,01,23,2.90
2020,10,24,01,24,2.90
2020,10,24,01,25,2.90
2020,10,24,01,26,2.90
2020,10,24,01,27,2.90
2020,10,24,01,28,2.90
2020,10,24,01,29,2.90
2020,10,24,01,30,2.90
2020,10,24,01,31,2.80
2020,10,24,01,32,2.80
2020,10,24,01,33,2.80
2020,10,24,01,34,2.80
2020,10,24,01,35,2.80
2020,10,24,01,36,2.80
2020,10,24,01,37,2.80
2020,10,24,01,38,2.80
2020,10,24,01,39,2.70
2020,10,24,01,40,2.80
2020,10,24,01,41,2.80
2020,10,24,01,42,2.80
2020,10,24,01,43,2.80
2020,10,24,01,44,2.80
2020,10,24,01,45,2.80
2020,10,24,01,46,2.80
2020,10,24,01,47,2.80
2020,10,24,01,48,2.80
2020,10,24,01,49,2.80
2020,10,24,01,50,2.80
2020,10,24,01,51,2.80
2020,10,24,01,52,2.80
2020,10,24,01,53,2.80
2020,10,24,01,54,2.70
2020,10,24,01,55,2.70
2020,10,24,01,56,2.70
2020,10,24,01,57,2.70
2020,10,24,01,58,2.70
2020,10,24,01,59,2.70
2020,10,24,02,00,2.70
2020,10,24,02,01,2.70
2020,10,24,02,02,2.70
2020,10,24,02,03,2.70
2020,10,24,02,04,2.70
2020,10,24,02,05,2.70
2020,10,24,02,06,2.70
2020,10,24,02,07,2.70
2020,10,24,02,08,2.70
2020,10,24,02,09,2.70
2020,10,24,02,10,2.70
2020,10,24,02,11,2.70
2020,10,24,02,12,2.80
2020,10,24,02,13,2.80
2020,10,24,02,14,2.80
2020,10,24,02,15,2.80
2020,10,24,02,16,2.80
2020,10,24,02,17,2.80
2020,10,24,02,18,2.80
2020,10,24,02,19,2.70
2020,10,24,02,20,2.70
2020,10,24,02,21,2.80
2020,10,24,02,22,2.80
2020,10,24,02,23,2.80
2020,10,24,02,24,2.80
2020,10,24,02,25,2.80
2020,10,24,02,26,2.80
2020,10,24,02,27,2.80
2020,10,24,02,28,2.80
2020,10,24,02,29,2.80
2020,10,24,02,30,2.80
2020,10,24,02,31,2.80
2020,10,24,02,32,2.70
2020,10,24,02,33,2.70
2020,10,24,02,34,2.70
2020,10,24,02,35,2.70
2020,10,24,02,36,2.70
2020,10,24,02,37,2.70
2020,10,24,02,38,2.70
2020,10,24,02,39,2.70
2020,10,24,02,40,2.70
2020,10,24,02,41,2.70
2020,10,24,02,42,2.70
2020,10,24,02,43,2.70
2020,10,24,02,44,2.70
2020,10,24,02,45,2.70
2020,10,24,02,46,2.70
2020,10,24,02,47,2.70
2020,10,24,02,48,2.70
2020,10,24,02,49,2.70
2020,10,24,02,50,2.70
2020,10,24,02,51,2.70
2020,10,24,02,52,2.70
2020,10,24,02,53,2.70
2020,10,24,02,54,2.70
2020,10,24,02,55,2.70
2020,10,24,02,56,2.70
2020,10,24,02,57,2.70
2020,10,24,02,58,2.70
2020,10,24,02,59,2.70
2020,10,24,03,00,2.70
2020,10,24,03,01,2.70
2020,10,24,03,02,2.70
2020,10,24,03,03,2.70
2020,10,24,03,04,2.70
2020,10,24,03,05,2.70
2020,10,24,03,06,2.70
2020,10,24,03,07,2.60
2020,10,24,03,08,2.60
2020,10,24,03,09,2.60
2020,10,24,03,10,2.60
2020,10,24,03,11,2.60
2020,10,24,03,12,2.60
2020,10,24,03,13,2.70
2020,10,24,03,14,2.70
2020,10,24,03,15,2.70
2020,10,24,03,16,2.70
2020,10,24,03,17,2.70
2020,10,24,03,18,2.70
2020,10,24,03,19,2.60
2020,10,24,03,20,2.60
2020,10,24,03,21,2.60
2020,10,24,03,22,2.60
2020,10,24,03,23,2.50
2020,10,24,03,24,2.50
2020,10,24,03,25,2.50
2020,10,24,03,26,2.50
2020,10,24,03,27,2.50
2020,10,24,03,28,2.50
2020,10,24,03,29,2.50
2020,10,24,03,30,2.40
2020,10,24,03,31,2.40
2020,10,24,03,32,2.40
2020,10,24,03,33,2.40
2020,10,24,03,34,2.40
2020,10,24,03,35,2.40
2020,10,24,03,36,2.40
2020,10,24,03,37,2.40
2020,10,24,03,38,2.40
2020,10,24,03,39,2.40
2020,10,24,03,40,2.40
2020,10,24,03,41,2.40
2020,10,24,03,42,2.40
2020,10,24,03,43,2.30
2020,10,24,03,44,2.30
2020,10,24,03,45,2.30
2020,10,24,03,46,2.30
2020,10,24,03,47,2.30
2020,10,24,03,48,2.30
2020,10,24,03,49,2.30
2020,10,24,03,50,2.30
2020,10,24,03,51,2.30
2020,10,24,03,52,2.30
2020,10,24,03,53,2.30
2020,10,24,03,54,2.30
2020,10,24,03,55,2.30
2020,10,24,03,56,2.40
2020,10,24,03,57,2.40
2020,10,24,03,58,2.40
2020,10,24,03,59,2.40
2020,10,24,04,00,2.40
2020,10,24,04,01,2.40
2020,10,24,04,02,2.40
2020,10,24,04,03,2.40
2020,10,24,04,04,2.40
2020,10,24,04,05,2.40
2020,10,24,04,06,2.40
2020,10,24,04,07,2.40
2020,10,24,04,08,2.40
2020,10,24,04,09,2.40
2020,10,24,04,10,2.40
2020,10,24,04,11,2.40
2020,10,24,04,12,2.40
2020,10,24,04,13,2.40
2020,10,24,04,14,2.40
2020,10,24,04,15,2.40
2020,10,24,04,16,2.40
2020,10,24,04,17,2.50
2020,10,24,04,18,2.50
2020,10,24,04,19,2.50
2020,10,24,04,20,2.50
2020,10,24,04,21,2.50
2020,10,24,04,22,2.50
2020,10,24,04,23,2.50
2020,10,24,04,24,2.40
2020,10,24,04,25,2.40
2020,10,24,04,26,2.40
2020,10,24,04,27,2.40
2020,10,24,04,28,2.40
2020,10,24,04,29,2.40
2020,10,24,04,30,2.30
2020,10,24,04,31,2.40
2020,10,24,04,32,2.40
2020,10,24,04,33,2.40
2020,10,24,04,34,2.30
2020,10,24,04,35,2.40
2020,10,24,04,36,2.40
2020,10,24,04,37,2.40
2020,10,24,04,38,2.40
2020,10,24,04,39,2.40
2020,10,24,04,40,2.40
2020,10,24,04,41,2.40
2020,10,24,04,42,2.30
2020,10,24,04,43,2.30
2020,10,24,04,44,2.30
2020,10,24,04,45,2.30
2020,10,24,04,46,2.30
2020,10,24,04,47,2.30
2020,10,24,04,48,2.30
2020,10,24,04,49,2.30
2020,10,24,04,50,2.30
2020,10,24,04,51,2.30
2020,10,24,04,52,2.30
2020,10,24,04,53,2.30
2020,10,24,04,54,2.30
2020,10,24,04,55,2.30
2020,10,24,04,56,2.30
2020,10,24,04,57,2.30
2020,10,24,04,58,2.30
2020,10,24,04,59,2.30
2020,10,24,05,00,2.30
2020,10,24,05,01,2.30
2020,10,24,05,02,2.30
2020,10,24,05,03,2.20
2020,10,24,05,04,2.20
2020,10,24,05,05,2.20
2020,10,24,05,06,2.20
2020,10,24,05,07,2.20
2020,10,24,05,08,2.20
2020,10,24,05,09,2.20
2020,10,24,05,10,2.20
2020,10,24,05,11,2.20
2020,10,24,05,12,2.10
2020,10,24,05,13,2.10
2020,10,24,05,14,2.10
2020,10,24,05,15,2.10
2020,10,24,05,16,2.10
2020,10,24,05,17,2.10
2020,10,24,05,18,2.10
2020,10,24,05,19,2.10
2020,10,24,05,20,2.10
2020,10,24,05,21,2.10
2020,10,24,05,22,2.10
2020,10,24,05,23,2.10
2020,10,24,05,24,2.00
2020,10,24,05,25,2.00
2020,10,24,05,26,2.00
2020,10,24,05,27,2.00
2020,10,24,05,28,2.00
2020,10,24,05,29,2.00
2020,10,24,05,30,2.10
2020,10,24,05,31,2.00
2020,10,24,05,32,2.10
2020,10,24,05,33,2.10
2020,10,24,05,34,2.10
2020,10,24,05,35,2.00
2020,10,24,05,36,2.00
2020,10,24,05,37,2.00
2020,10,24,05,38,2.00
2020,10,24,05,39,2.00
2020,10,24,05,40,2.00
2020,10,24,05,41,2.00
2020,10,24,05,42,2.00
2020,10,24,05,43,2.10
2020,10,24,05,44,2.10
2020,10,24,05,45,2.10
2020,10,24,05,46,2.10
2020,10,24,05,47,2.00
2020,10,24,05,48,2.10
2020,10,24,05,49,2.00
2020,10,24,05,50,2.00
2020,10,24,05,51,2.00
2020,10,24,05,52,2.00
2020,10,24,05,53,2.00
2020,10,24,05,54,2.00
2020,10,24,05,55,1.90
2020,10,24,05,56,1.90
2020,10,24,05,57,1.90
2020,10,24,05,58,1.90
2020,10,24,05,59,1.90
2020,10,24,06,00,1.90
2020,10,24,06,01,1.90
2020,10,24,06,02,1.90
2020,10,24,06,03,1.90
2020,10,24,06,04,1.90
2020,10,24,06,05,1.90
2020,10,24,06,06,1.90
2020,10,24,06,07,1.80
2020,10,24,06,08,1.80
2020,10,24,06,09,1.80
2020,10,24,06,10,1.80
2020,10,24,06,11,1.80
2020,10,24,06,12,1.80
2020,10,24,06,13,1.80
2020,10,24,06,14,1.80
2020,10,24,06,15,1.80
2020,10,24,06,16,1.80
2020,10,24,06,17,1.80
2020,10,24,06,18,1.80
2020,10,24,06,19,1.80
2020,10,24,06,20,1.80
2020,10,24,06,21,1.80
2020,10,24,06,22,1.80
2020,10,24,06,23,1.80
2020,10,24,06,24,1.70
2020,10,24,06,25,1.70
2020,10,24,06,26,1.70
2020,10,24,06,27,1.80
2020,10,24,06,28,1.80
2020,10,24,06,29,1.80
2020,10,24,06,30,1.80
2020,10,24,06,31,1.80
2020,10,24,06,32,1.80
2020,10,24,06,33,1.70
2020,10,24,06,34,1.70
2020,10,24,06,35,1.70
2020,10,24,06,36,1.70
2020,10,24,06,37,1.70
2020,10,24,06,38,1.70
2020,10,24,06,39,1.70
2020,10,24,06,40,1.70
2020,10,24,06,41,1.70
2020,10,24,06,42,1.60
2020,10,24,06,43,1.60
2020,10,24,06,44,1.60
2020,10,24,06,45,1.60
2020,10,24,06,46,1.60
2020,10,24,06,47,1.60
2020,10,24,06,48,1.60
2020,10,24,06,49,1.60
2020,10,24,06,50,1.60
2020,10,24,06,51,1.60
2020,10,24,06,52,1.60
2020,10,24,06,53,1.60
2020,10,24,06,54,1.60
2020,10,24,06,55,1.60
2020,10,24,06,56,1.60
2020,10,24,06,57,1.50
2020,10,24,06,58,1.50
2020,10,24,06,59,1.50
2020,10,24,07,00,1.50
2020,10,24,07,01,1.50
2020,10,24,07,02,1.50
2020,10,24,07,03,1.50
2020,10,24,07,04,1.50
2020,10,24,07,05,1.50
2020,10,24,07,06,1.50
2020,10,24,07,07,1.50
2020,10,24,07,08,1.50
2020,10,24,07,09,1.40
2020,10,24,07,10,1.40
2020,10,24,07,11,1.40
2020,10,24,07,12,1.40
2020,10,24,07,13,1.40
2020,10,24,07,14,1.40
2020,10,24,07,15,1.40
2020,10,24,07,16,1.40
2020,10,24,07,17,1.40
2020,10,24,07,18,1.40
2020,10,24,07,19,1.40
2020,10,24,07,20,1.40
2020,10,24,07,21,1.40
2020,10,24,07,22,1.40
2020,10,24,07,23,1.40
2020,10,24,07,24,1.40
2020,10,24,07,25,1.40
2020,10,24,07,26,1.40
2020,10,24,07,27,1.40
2020,10,24,07,28,1.40
2020,10,24,07,29,1.40
2020,10,24,07,30,1.40
2020,10,24,07,31,1.40
2020,10,24,07,32,1.40
2020,10,24,07,33,1.40
2020,10,24,07,34,1.40
2020,10,24,07,35,1.40
2020,10,24,07,36,1.40
2020,10,24,07,37,1.30
2020,10,24,07,38,1.30
2020,10,24,07,39,1.30
2020,10,24,07,40,1.30
2020,10,24,07,41,1.30
2020,10,24,07,42,1.30
2020,10,24,07,43,1.30
2020,10,24,07,44,1.30
2020,10,24,07,45,1.30
2020,10,24,07,46,1.30
2020,10,24,07,47,1.30
2020,10,24,07,48,1.30
2020,10,24,07,49,1.30
2020,10,24,07,50,1.30
2020,10,24,07,51,1.30
2020,10,24,07,52,1.30
2020,10,24,07,53,1.30
2020,10,24,07,54,1.30
2020,10,24,07,55,1.30
2020,10,24,07,56,1.30
2020,10,24,07,57,1.30
2020,10,24,07,58,1.30
2020,10,24,07,59,1.30
2020,10,24,08,00,1.30
2020,10,24,08,01,1.30
2020,10,24,08,02,1.30
2020,10,24,08,03,1.30
2020,10,24,08,04,1.30
2020,10,24,08,05,1.30
2020,10,24,08,06,1.30
2020,10,24,08,07,1.30
2020,10,24,08,08,1.30
2020,10,24,08,09,1.30
2020,10,24,08,10,1.30
2020,10,24,08,11,1.30
2020,10,24,08,12,1.30
2020,10,24,08,13,1.30
2020,10,24,08,14,1.30
2020,10,24,08,15,1.30
2020,10,24,08,16,1.30
2020,10,24,08,17,1.30
2020,10,24,08,18,1.30
2020,10,24,08,19,1.40
2020,10,24,08,20,1.40
2020,10,24,08,21,1.40
2020,10,24,08,22,1.40
2020,10,24,08,23,1.40
2020,10,24,08,24,1.40
2020,10,24,08,25,1.40
2020,10,24,08,26,1.40
2020,10,24,08,27,1.40
2020,10,24,08,28,1.40
2020,10,24,08,29,1.40
2020,10,24,08,30,1.40
2020,10,24,08,31,1.40
2020,10,24,08,32,1.40
2020,10,24,08,33,1.30
2020,10,24,08,34,1.30
2020,10,24,08,35,1.30
2020,10,24,08,36,1.30
2020,10,24,08,37,1.40
2020,10,24,08,38,1.40
2020,10,24,08,39,1.40
2020,10,24,08,40,1.40
2020,10,24,08,41,1.50
2020,10,24,08,42,1.50
2020,10,24,08,43,1.50
2020,10,24,08,44,1.50
2020,10,24,08,45,1.50
2020,10,24,08,46,1.50
2020,10,24,08,47,1.60
2020,10,24,08,48,1.60
2020,10,24,08,49,1.60
2020,10,24,08,50,1.60
2020,10,24,08,51,1.60
2020,10,24,08,52,1.60
2020,10,24,08,53,1.70
2020,10,24,08,54,1.70
2020,10,24,08,55,1.70
2020,10,24,08,56,1.70
2020,10,24,08,57,1.70
2020,10,24,08,58,1.70
2020,10,24,08,59,1.80
2020,10,24,09,00,1.80
2020,10,24,09,01,1.80
2020,10,24,09,02,1.80
2020,10,24,09,03,1.80
2020,10,24,09,04,1.80
2020,10,24,09,05,1.90
2020,10,24,09,06,1.90
2020,10,24,09,07,1.90
2020,10,24,09,08,1.90
2020,10,24,09,09,2.00
2020,10,24,09,10,2.00
2020,10,24,09,11,2.10
2020,10,24,09,12,2.10
2020,10,24,09,13,2.10
2020,10,24,09,14,2.20
2020,10,24,09,15,2.20
2020,10,24,09,16,2.20
2020,10,24,09,17,2.30
2020,10,24,09,18,2.30
2020,10,24,09,19,2.30
2020,10,24,09,20,2.30
2020,10,24,09,21,2.40
2020,10,24,09,22,2.40
2020,10,24,09,23,2.50
2020,10,24,09,24,2.50
2020,10,24,09,25,2.50
2020,10,24,09,26,2.60
2020,10,24,09,27,2.60
2020,10,24,09,28,2.60
2020,10,24,09,29,2.70
2020,10,24,09,30,2.70
2020,10,24,09,31,2.80
2020,10,24,09,32,2.80
2020,10,24,09,33,2.80
2020,10,24,09,34,2.80
2020,10,24,09,35,2.90
2020,10,24,09,36,2.90
2020,10,24,09,37,2.90
2020,10,24,09,38,3.00
2020,10,24,09,39,3.00
2020,10,24,09,40,3.10
2020,10,24,09,41,3.10
2020,10,24,09,42,3.10
2020,10,24,09,43,3.10
2020,10,24,09,44,3.10
2020,10,24,09,45,3.20
2020,10,24,09,46,3.20
2020,10,24,09,47,3.30
2020,10,24,09,48,3.30
2020,10,24,09,49,3.40
2020,10,24,09,50,3.40
2020,10,24,09,51,3.50
2020,10,24,09,52,3.50
2020,10,24,09,53,3.60
2020,10,24,09,54,3.60
2020,10,24,09,55,3.70
2020,10,24,09,56,3.80
2020,10,24,09,57,3.80
2020,10,24,09,58,3.80
2020,10,24,09,59,3.90
2020,10,24,10,00,4.00
2020,10,24,10,01,4.00
2020,10,24,10,02,4.10
2020,10,24,10,03,4.10
2020,10,24,10,04,4.20
2020,10,24,10,05,4.20
2020,10,24,10,06,4.30
2020,10,24,10,07,4.30
2020,10,24,10,08,4.30
2020,10,24,10,09,4.40
2020,10,24,10,10,4.40
2020,10,24,10,11,4.40
2020,10,24,10,12,4.40
2020,10,24,10,13,4.50
2020,10,24,10,14,4.60
2020,10,24,10,15,4.60
2020,10,24,10,16,4.70
2020,10,24,10,17,4.70
2020,10,24,10,18,4.80
2020,10,24,10,19,4.80
2020,10,24,10,20,4.90
2020,10,24,10,21,4.90
2020,10,24,10,22,5.00
2020,10,24,10,23,5.00
2020,10,24,10,24,5.00
2020,10,24,10,25,5.10
2020,10,24,10,26,5.10
2020,10,24,10,27,5.20
2020,10,24,10,28,5.20
2020,10,24,10,29,5.30
2020,10,24,10,30,5.30
2020,10,24,10,31,5.30
2020,10,24,10,32,5.40
2020,10,24,10,33,5.40
2020,10,24,10,34,5.50
2020,10,24,10,35,5.50
2020,10,24,10,36,5.60
2020,10,24,10,37,5.60
2020,10,24,10,38,5.60
2020,10,24,10,39,5.70
2020,10,24,10,40,5.70
2020,10,24,10,41,5.80
2020,10,24,10,42,5.80
2020,10,24,10,43,5.80
2020,10,24,10,44,5.90
2020,10,24,10,45,5.90
2020,10,24,10,46,5.90
2020,10,24,10,47,5.90
2020,10,24,10,48,5.90
2020,10,24,10,49,5.90
2020,10,24,10,50,6.00
2020,10,24,10,51,6.00
2020,10,24,10,52,6.00
2020,10,24,10,53,6.00
2020,10,24,10,54,6.00
2020,10,24,10,55,6.00
2020,10,24,10,56,6.00
2020,10,24,10,57,6.00
2020,10,24,10,58,6.10
2020,10,24,10,59,6.10
2020,10,24,11,00,6.10
2020,10,24,11,01,6.20
2020,10,24,11,02,6.20
2020,10,24,11,03,6.30
2020,10,24,11,04,6.30
2020,10,24,11,05,6.30
2020,10,24,11,06,6.30
2020,10,24,11,07,6.30
2020,10,24,11,08,6.30
2020,10,24,11,09,6.30
2020,10,24,11,10,6.30
2020,10,24,11,11,6.30
2020,10,24,11,12,6.30
2020,10,24,11,13,6.30
2020,10,24,11,14,6.30
2020,10,24,11,15,6.40
2020,10,24,11,16,6.40
2020,10,24,11,17,6.40
2020,10,24,11,18,6.40
2020,10,24,11,19,6.40
2020,10,24,11,20,6.40
2020,10,24,11,21,6.40
2020,10,24,11,22,6.40
2020,10,24,11,23,6.40
2020,10,24,11,24,6.50
2020,10,24,11,25,6.50
2020,10,24,11,26,6.50
2020,10,24,11,27,6.50
2020,10,24,11,28,6.50
2020,10,24,11,29,6.50
2020,10,24,11,30,6.40
2020,10,24,11,31,6.50
2020,10,24,11,32,6.50
2020,10,24,11,33,6.50
2020,10,24,11,34,6.60
2020,10,24,11,35,6.60
2020,10,24,11,36,6.60
2020,10,24,11,37,6.60
2020,10,24,11,38,6.60
2020,10,24,11,39,6.70
2020,10,24,11,40,6.70
2020,10,24,11,41,6.80
2020,10,24,11,42,6.80
2020,10,24,11,43,6.80
2020,10,24,11,44,6.80
2020,10,24,11,45,6.80
2020,10,24,11,46,6.80
2020,10,24,11,47,6.90
2020,10,24,11,48,6.80
2020,10,24,11,49,6.90
2020,10,24,11,50,6.90
2020,10,24,11,51,6.90
2020,10,24,11,52,6.90
2020,10,24,11,53,6.90
2020,10,24,11,54,6.90
2020,10,24,11,55,7.00
2020,10,24,11,56,7.00
2020,10,24,11,57,7.00
2020,10,24,11,58,7.00
2020,10,24,11,59,7.00
2020,10,24,12,00,7.00
2020,10,24,12,01,7.00
2020,10,24,12,02,7.00
2020,10,24,12,03,7.00
2020,10,24,12,04,7.10
2020,10,24,12,05,7.10
2020,10,24,12,06,7.10
2020,10,24,12,07,7.10
2020,10,24,12,08,7.10
2020,10,24,12,09,7.10
2020,10,24,12,10,7.10
2020,10,24,12,11,7.20
2020,10,24,12,12,7.20
2020,10,24,12,13,7.20
2020,10,24,12,14,7.30
2020,10,24,12,15,7.30
2020,10,24,12,16,7.30
2020,10,24,12,17,7.30
2020,10,24,12,18,7.30
2020,10,24,12,19,7.30
2020,10,24,12,20,7.40
2020,10,24,12,21,7.40
2020,10,24,12,22,7.40
2020,10,24,12,23,7.40
2020,10,24,12,24,7.40
2020,10,24,12,25,7.40
2020,10,24,12,26,7.50
2020,10,24,12,27,7.40
2020,10,24,12,28,7.50
2020,10,24,12,29,7.50
2020,10,24,12,30,7.50
2020,10,24,12,31,7.60
2020,10,24,12,32,7.60
2020,10,24,12,33,7.60
2020,10,24,12,34,7.60
2020,10,24,12,35,7.60
2020,10,24,12,36,7.60
2020,10,24,12,37,7.60
2020,10,24,12,38,7.60
2020,10,24,12,39,7.70
2020,10,24,12,40,7.70
2020,10,24,12,41,7.70
2020,10,24,12,42,7.70
2020,10,24,12,43,7.70
2020,10,24,12,44,7.70
2020,10,24,12,45,7.80
2020,10,24,12,46,7.80
2020,10,24,12,47,7.80
2020,10,24,12,48,7.80
2020,10,24,12,49,7.90
2020,10,24,12,50,7.80
2020,10,24,12,51,7.90
2020,10,24,12,52,7.90
2020,10,24,12,53,7.90
2020,10,24,12,54,7.90
2020,10,24,12,55,7.90
2020,10,24,12,56,7.90
2020,10,24,12,57,7.90
2020,10,24,12,58,8.00
2020,10,24,12,59,8.00
2020,10,24,13,00,8.00
2020,10,24,13,01,8.00
2020,10,24,13,02,8.00
2020,10,24,13,03,8.00
2020,10,24,13,04,8.00
2020,10,24,13,05,8.00
2020,10,24,13,06,8.00
2020,10,24,13,07,8.10
2020,10,24,13,08,8.10
2020,10,24,13,09,8.10
2020,10,24,13,10,8.10
2020,10,24,13,11,8.10
2020,10,24,13,12,8.10
2020,10,24,13,13,8.10
2020,10,24,13,14,8.10
2020,10,24,13,15,8.10
2020,10,24,13,16,8.10
2020,10,24,13,17,8.10
2020,10,24,13,18,8.10
2020,10,24,13,19,8.10
2020,10,24,13,20,8.10
2020,10,24,13,21,8.10
2020,10,24,13,22,8.10
2020,10,24,13,23,8.10
2020,10,24,13,24,8.20
2020,10,24,13,25,8.20
2020,10,24,13,26,8.20
2020,10,24,13,27,8.20
2020,10,24,13,28,8.20
2020,10,24,13,29,8.20
2020,10,24,13,30,8.20
2020,10,24,13,31,8.20
2020,10,24,13,32,8.20
2020,10,24,13,33,8.20
2020,10,24,13,34,8.20
2020,10,24,13,35,8.20
2020,10,24,13,36,8.20
2020,10,24,13,37,8.20
2020,10,24,13,38,8.20
2020,10,24,13,39,8.20
2020,10,24,13,40,8.20
2020,10,24,13,41,8.20
2020,10,24,13,42,8.20
2020,10,24,13,43,8.20
2020,10,24,13,44,8.20
2020,10,24,13,45,8.20
2020,10,24,13,46,8.20
2020,10,24,13,47,8.20
2020,10,24,13,48,8.20
2020,10,24,13,49,8.20
2020,10,24,13,50,8.20
2020,10,24,13,51,8.20
2020,10,24,13,52,8.20
2020,10,24,13,53,8.20
2020,10,24,13,54,8.20
2020,10,24,13,55,8.20
2020,10,24,13,56,8.20
2020,10,24,13,57,8.20
2020,10,24,13,58,8.20
2020,10,24,13,59,8.20
2020,10,24,14,00,8.20
2020,10,24,14,01,8.20
2020,10,24,14,02,8.20
2020,10,24,14,03,8.20
2020,10,24,14,04,8.20
2020,10,24,14,05,8.20
2020,10,24,14,06,8.20
2020,10,24,14,07,8.20
2020,10,24,14,08,8.20
2020,10,24,14,09,8.20
2020,10,24,14,10,8.20
2020,10,24,14,11,8.20
2020,10,24,14,12,8.20
2020,10,24,14,13,8.20
2020,10,24,14,14,8.20
2020,10,24,14,15,8.20
2020,10,24,14,16,8.10
2020,10,24,14,17,8.20
2020,10,24,14,18,8.20
2020,10,24,14,19,8.20
2020,10,24,14,20,8.20
2020,10,24,14,21,8.20
2020,10,24,14,22,8.20
2020,10,24,14,23,8.20
2020,10,24,14,24,8.20
2020,10,24,14,25,8.20
2020,10,24,14,26,8.20
2020,10,24,14,27,8.10
2020,10,24,14,28,8.20
2020,10,24,14,29,8.20
2020,10,24,14,30,8.20
2020,10,24,14,31,8.10
2020,10,24,14,32,8.10
2020,10,24,14,33,8.10
2020,10,24,14,34,8.10
2020,10,24,14,35,8.10
2020,10,24,14,36,8.10
2020,10,24,14,37,8.10
2020,10,24,14,38,8.20
2020,10,24,14,39,8.20
2020,10,24,14,40,8.20
2020,10,24,14,41,8.20
2020,10,24,14,42,8.20
2020,10,24,14,43,8.20
2020,10,24,14,44,8.20
2020,10,24,14,45,8.20
2020,10,24,14,46,8.20
2020,10,24,14,47,8.20
2020,10,24,14,48,8.20
2020,10,24,14,49,8.20
2020,10,24,14,50,8.20
2020,10,24,14,51,8.20
2020,10,24,14,52,8.20
2020,10,24,14,53,8.20
2020,10,24,14,54,8.20
2020,10,24,14,55,8.20
2020,10,24,14,56,8.20
2020,10,24,14,57,8.20
2020,10,24,14,58,8.20
2020,10,24,14,59,8.20
2020,10,24,15,00,8.20
2020,10,24,15,01,8.20
2020,10,24,15,02,8.20
2020,10,24,15,03,8.20
2020,10,24,15,04,8.20
2020,10,24,15,05,8.30
2020,10,24,15,06,8.30
2020,10,24,15,07,8.30
2020,10,24,15,08,8.30
2020,10,24,15,09,8.30
2020,10,24,15,10,8.30
2020,10,24,15,11,8.30
2020,10,24,15,12,8.30
2020,10,24,15,13,8.30
2020,10,24,15,14,8.20
2020,10,24,15,15,8.20
2020,10,24,15,16,8.20
2020,10,24,15,17,8.20
2020,10,24,15,18,8.20
2020,10,24,15,19,8.20
2020,10,24,15,20,8.20
2020,10,24,15,21,8.30
2020,10,24,15,22,8.20
2020,10,24,15,23,8.20
2020,10,24,15,24,8.30
2020,10,24,15,25,8.20
2020,10,24,15,26,8.20
2020,10,24,15,27,8.20
2020,10,24,15,28,8.20
2020,10,24,15,29,8.20
2020,10,24,15,30,8.20
2020,10,24,15,31,8.20
2020,10,24,15,32,8.20
2020,10,24,15,33,8.20
2020,10,24,15,34,8.10
2020,10,24,15,35,8.10
2020,10,24,15,36,8.10
2020,10,24,15,37,8.10
2020,10,24,15,38,8.10
2020,10,24,15,39,8.10
2020,10,24,15,40,8.00
2020,10,24,15,41,8.00
2020,10,24,15,42,8.00
2020,10,24,15,43,8.00
2020,10,24,15,44,8.00
2020,10,24,15,45,8.00
2020,10,24,15,46,8.00
2020,10,24,15,47,8.00
2020,10,24,15,48,8.00
2020,10,24,15,49,8.00
2020,10,24,15,50,8.00
2020,10,24,15,51,8.00
2020,10,24,15,52,8.10
2020,10,24,15,53,8.10
2020,10,24,15,54,8.10
2020,10,24,15,55,8.10
2020,10,24,15,56,8.00
2020,10,24,15,57,8.00
2020,10,24,15,58,8.00
2020,10,24,15,59,8.00
2020,10,24,16,00,8.00
2020,10,24,16,01,8.10
2020,10,24,16,02,8.10
2020,10,24,16,03,8.10
2020,10,24,16,04,8.10
2020,10,24,16,05,8.10
2020,10,24,16,06,8.10
2020,10,24,16,07,8.10
2020,10,24,16,08,8.10
2020,10,24,16,09,8.00
2020,10,24,16,10,8.00
2020,10,24,16,11,8.00
2020,10,24,16,12,8.00
2020,10,24,16,13,8.00
2020,10,24,16,14,8.00
2020,10,24,16,15,8.00
2020,10,24,16,16,7.90
2020,10,24,16,17,7.90
2020,10,24,16,18,7.90
2020,10,24,16,19,7.90
2020,10,24,16,20,7.90
2020,10,24,16,21,7.90
2020,10,24,16,22,7.90
2020,10,24,16,23,7.90
2020,10,24,16,24,7.90
2020,10,24,16,25,7.90
2020,10,24,16,26,7.80
2020,10,24,16,27,7.80
2020,10,24,16,28,7.80
2020,10,24,16,29,7.80
2020,10,24,16,30,7.80
2020,10,24,16,31,7.80
2020,10,24,16,32,7.80
2020,10,24,16,33,7.80
2020,10,24,16,34,7.80
2020,10,24,16,35,7.80
2020,10,24,16,36,7.80
2020,10,24,16,37,7.70
2020,10,24,16,38,7.70
2020,10,24,16,39,7.70
2020,10,24,16,40,7.70
2020,10,24,16,41,7.70
2020,10,24,16,42,7.70
2020,10,24,16,43,7.60
2020,10,24,16,44,7.60
2020,10,24,16,45,7.60
2020,10,24,16,46,7.60
2020,10,24,16,47,7.60
2020,10,24,16,48,7.60
2020,10,24,16,49,7.60
2020,10,24,16,50,7.50
2020,10,24,16,51,7.50
2020,10,24,16,52,7.50
2020,10,24,16,53,7.40
2020,10,24,16,54,7.40
2020,10,24,16,55,7.40
2020,10,24,16,56,7.40
2020,10,24,16,57,7.40
2020,10,24,16,58,7.40
2020,10,24,16,59,7.30
2020,10,24,17,00,7.30
2020,10,24,17,01,7.30
2020,10,24,17,02,7.30
2020,10,24,17,03,7.30
2020,10,24,17,04,7.30
2020,10,24,17,05,7.30
2020,10,24,17,06,7.30
2020,10,24,17,07,7.30
2020,10,24,17,08,7.30
2020,10,24,17,09,7.30
2020,10,24,17,10,7.30
2020,10,24,17,11,7.30
2020,10,24,17,12,7.30
2020,10,24,17,13,7.30
2020,10,24,17,14,7.30
2020,10,24,17,15,7.20
2020,10,24,17,16,7.30
2020,10,24,17,17,7.20
2020,10,24,17,18,7.20
2020,10,24,17,19,7.20
2020,10,24,17,20,7.20
2020,10,24,17,21,7.20
2020,10,24,17,22,7.20
2020,10,24,17,23,7.20
2020,10,24,17,24,7.10
2020,10,24,17,25,7.10
2020,10,24,17,26,7.00
2020,10,24,17,27,7.00
2020,10,24,17,28,7.00
2020,10,24,17,29,6.90
2020,10,24,17,30,6.90
2020,10,24,17,31,6.90
2020,10,24,17,32,6.80
2020,10,24,17,33,6.80
2020,10,24,17,34,6.80
2020,10,24,17,35,6.70
2020,10,24,17,36,6.70
2020,10,24,17,37,6.70
2020,10,24,17,38,6.60
2020,10,24,17,39,6.60
2020,10,24,17,40,6.60
2020,10,24,17,41,6.50
2020,10,24,17,42,6.50
2020,10,24,17,43,6.50
2020,10,24,17,44,6.40
2020,10,24,17,45,6.40
2020,10,24,17,46,6.40
2020,10,24,17,47,6.40
2020,10,24,17,48,6.30
2020,10,24,17,49,6.30
2020,10,24,17,50,6.30
2020,10,24,17,51,6.20
2020,10,24,17,52,6.20
2020,10,24,17,53,6.10
2020,10,24,17,54,6.10
2020,10,24,17,55,6.10
2020,10,24,17,56,6.00
2020,10,24,17,57,6.00
2020,10,24,17,58,5.90
2020,10,24,17,59,5.90
2020,10,24,18,00,5.90
2020,10,24,18,01,5.80
2020,10,24,18,02,5.80
2020,10,24,18,03,5.80
2020,10,24,18,04,5.70
2020,10,24,18,05,5.70
2020,10,24,18,06,5.60